Cook, MN

3:53 PM CDT on May 24, 2017 (GMT -0500)
Cook Municipal

Weather History for KCQM - July, 2013

Change the Weather History Date:

Thursday, July 18, 2013

  Actual Average Record
Temperature  
Mean Temperature 76 °F -  
Max Temperature 87 °F 76 °F 91 °F (2011)
Min Temperature 64 °F 52 °F 41 °F (2003)
Cooling Degree Days 10    
Growing Degree Days 26 (Base 50)    
Moisture  
Dew Point 67 °F    
Average Humidity 84    
Maximum Humidity 100    
Minimum Humidity 55    
Precipitation  
Precipitation 0.06 in - - ()
Sea Level Pressure  
Sea Level Pressure 29.86 in    
Wind  
Wind Speed 3 mph (WSW)    
Max Wind Speed 16 mph    
Max Gust Speed 24 mph    
Visibility 8 miles    
Events Rain , Thunderstorm    
Averages and records for this station are not official NWS values.
T = Trace of Precipitation, MM = Missing Value Source: NWS Daily Summary

Daily Weather History Graph

Daily Weather History Graph

Search for Another Location

Airport or City:

Trip Planner

Search our weather history database for the weather conditions in past years. The results will help you decide how hot, cold, wet, or windy it might be!

Date:

Astronomy

Jul. 18, 2013 Rise Set
Actual Time 5:31 AM CDT 9:02 PM CDT
Civil Twilight 4:52 AM CDT 9:40 PM CDT
Nautical Twilight 4:01 AM CDT 10:31 PM CDT
Astronomical Twilight 2:51 AM CDT 11:40 PM CDT
Moon 4:57 PM CDT (7/18) 1:26 AM CDT (7/18)
Length of Visible Light 16h 48m
Length of Day
15h 31m
Waxing Gibbous, 77% of the Moon is Illuminated
Jul 18
Waxing Gibbous
Jul 22
Full
Jul 29
Last Quarter
Aug 6
New
Aug 14
First Quarter

Hourly Weather History & Observations

Time (CDT) Temp. Heat Index Dew Point Humidity Pressure Visibility Wind Dir Wind Speed Gust Speed Precip Events Conditions
12:16 AM 64.4 °F - 64.4 °F 100% 30.13 in 10.0 mi Calm Calm - N/A   Scattered Clouds
12:37 AM 64.4 °F - 64.4 °F 100% 30.12 in 10.0 mi Calm Calm - N/A   Clear
12:56 AM 66.2 °F - 64.4 °F 94% 30.13 in 4.0 mi West 3.5 mph - N/A Rain , Thunderstorm Heavy Thunderstorms and Rain
1:16 AM 66.2 °F - 64.4 °F 94% 30.10 in 2.5 mi ESE 3.5 mph - 0.01 in Rain Heavy Rain
1:37 AM 64.4 °F - 64.4 °F 100% 30.09 in 10.0 mi Calm Calm - 0.03 in Rain Light Rain
1:56 AM 64.4 °F - 64.4 °F 100% 30.09 in 10.0 mi Calm Calm - N/A   Clear
2:16 AM 64.4 °F - 64.4 °F 100% 30.09 in 7.0 mi Calm Calm - N/A   Scattered Clouds
2:36 AM 64.4 °F - 64.4 °F 100% 30.08 in 5.0 mi Calm Calm - N/A   Scattered Clouds
2:56 AM 64.4 °F - 64.4 °F 100% 30.07 in 4.0 mi Calm Calm - N/A   Clear
3:17 AM 64.4 °F - 64.4 °F 100% 30.07 in 7.0 mi Calm Calm - 0.01 in   Scattered Clouds
3:36 AM 64.4 °F - 64.4 °F 100% 30.06 in 5.0 mi Calm Calm - 0.01 in   Mostly Cloudy
3:56 AM 64.4 °F - 64.4 °F 100% 30.05 in 4.0 mi Calm Calm - N/A   Scattered Clouds
4:17 AM 64.4 °F - 64.4 °F 100% 30.04 in 4.0 mi Calm Calm - N/A   Mostly Cloudy
4:36 AM 64.4 °F - 64.4 °F 100% 30.03 in 5.0 mi Calm Calm - N/A   Scattered Clouds
4:56 AM 64.4 °F - 64.4 °F 100% 30.02 in 7.0 mi Calm Calm - N/A   Scattered Clouds
5:17 AM 64.4 °F - 64.4 °F 100% 30.01 in 7.0 mi Calm Calm - N/A   Scattered Clouds
5:36 AM 64.4 °F - 64.4 °F 100% 30.00 in 7.0 mi Calm Calm - N/A   Scattered Clouds
5:56 AM 64.4 °F - 64.4 °F 100% 30.00 in 10.0 mi Calm Calm - N/A   Light Drizzle
6:16 AM 64.4 °F - 64.4 °F 100% 29.99 in 7.0 mi Calm Calm - N/A   Mostly Cloudy
6:36 AM 64.4 °F - 64.4 °F 100% 29.98 in 5.0 mi ESE 3.5 mph - N/A   Overcast
6:57 AM 66.2 °F - 64.4 °F 94% 29.98 in 2.5 mi Calm Calm - N/A   Overcast
7:16 AM 66.2 °F - 64.4 °F 94% 29.97 in 1.8 mi NE 3.5 mph - N/A   Overcast
7:36 AM 64.4 °F - 64.4 °F 100% 29.97 in 2.0 mi NNE 4.6 mph - N/A Thunderstorm Overcast
7:57 AM 66.2 °F - 66.2 °F 100% 29.95 in 4.0 mi Calm Calm - N/A   Overcast
8:16 AM 66.2 °F - 66.2 °F 100% 29.94 in 3.0 mi ENE 3.5 mph - N/A   Overcast
8:36 AM 68.0 °F - 66.2 °F 94% 29.93 in 4.0 mi ENE 4.6 mph - N/A Thunderstorm Overcast
8:56 AM 68.0 °F - 68.0 °F 100% 29.92 in 4.0 mi ESE 4.6 mph - N/A   Overcast
9:16 AM 69.8 °F - 69.8 °F 100% 29.91 in 7.0 mi East 4.6 mph - N/A   Mostly Cloudy
9:37 AM 73.4 °F - 71.6 °F 94% 29.90 in 10.0 mi Calm Calm - N/A   Scattered Clouds
9:56 AM 75.2 °F - 71.6 °F 89% 29.89 in 10.0 mi Calm Calm - N/A   Clear
10:16 AM 77.0 °F - 71.6 °F 83% 29.89 in 10.0 mi Calm Calm - 0.01 in   Scattered Clouds
10:37 AM 78.8 °F - 71.6 °F 78% 29.87 in 10.0 mi SW 3.5 mph - 0.01 in   Mostly Cloudy
10:56 AM 78.8 °F - 71.6 °F 78% 29.86 in 10.0 mi South 4.6 mph - N/A   Scattered Clouds
11:16 AM 80.6 °F 84.6 °F 71.6 °F 74% 29.87 in 10.0 mi WSW 6.9 mph - N/A   Scattered Clouds
11:36 AM 77.0 °F - 71.6 °F 83% 29.87 in 10.0 mi NNW 5.8 mph - N/A Thunderstorm Mostly Cloudy
11:56 AM 77.0 °F - 71.6 °F 83% 29.87 in 10.0 mi NNW 5.8 mph - N/A   Scattered Clouds
12:16 PM 75.2 °F - 71.6 °F 89% 29.86 in 10.0 mi NW 3.5 mph - N/A   Mostly Cloudy
12:36 PM 75.2 °F - 71.6 °F 89% 29.85 in 10.0 mi North 3.5 mph - N/A   Overcast
12:57 PM 78.8 °F - 71.6 °F 78% 29.84 in 10.0 mi WNW 5.8 mph - N/A   Scattered Clouds
1:16 PM 82.4 °F 87.2 °F 71.6 °F 70% 29.83 in 10.0 mi West 8.1 mph - 0.01 in   Clear
1:36 PM 82.4 °F 87.2 °F 71.6 °F 70% 29.82 in 10.0 mi West 8.1 mph - 0.01 in   Clear
1:57 PM 82.4 °F 87.2 °F 71.6 °F 70% 29.79 in 10.0 mi WSW 3.5 mph - N/A   Clear
2:16 PM 84.2 °F 89.6 °F 71.6 °F 66% 29.78 in 10.0 mi WSW 9.2 mph - N/A   Clear
2:36 PM 84.2 °F 90.9 °F 73.4 °F 70% 29.77 in 10.0 mi WSW 5.8 mph - N/A   Clear
2:57 PM 86.0 °F 93.4 °F 73.4 °F 66% 29.76 in 10.0 mi SW 6.9 mph 10.4 mph N/A   Clear
3:16 PM 86.0 °F 93.4 °F 73.4 °F 66% 29.75 in 10.0 mi SW 11.5 mph 16.1 mph N/A   Clear
3:36 PM 87.8 °F 93.8 °F 71.6 °F 58% 29.74 in 10.0 mi SW 11.5 mph 17.3 mph N/A   Clear
3:57 PM 87.8 °F 93.8 °F 71.6 °F 58% 29.73 in 10.0 mi SSW 13.8 mph 21.9 mph N/A   Clear
4:16 PM 87.8 °F 93.8 °F 71.6 °F 58% 29.73 in 10.0 mi SW 13.8 mph 19.6 mph N/A   Clear
4:36 PM 87.8 °F 93.8 °F 71.6 °F 58% 29.73 in 10.0 mi SW 13.8 mph 21.9 mph N/A   Clear
4:56 PM 87.8 °F 93.8 °F 71.6 °F 58% 29.71 in 10.0 mi SSW 16.1 mph 21.9 mph N/A   Clear
5:16 PM 87.8 °F 93.8 °F 71.6 °F 58% 29.69 in 10.0 mi SSW 11.5 mph 24.2 mph N/A   Clear
5:37 PM 87.8 °F 93.8 °F 71.6 °F 58% 29.69 in 10.0 mi WSW 11.5 mph 19.6 mph N/A Thunderstorm Scattered Clouds
5:56 PM 87.8 °F 93.8 °F 71.6 °F 58% 29.68 in 10.0 mi WSW 11.5 mph 18.4 mph N/A   Scattered Clouds
6:17 PM 87.8 °F 92.6 °F 69.8 °F 55% 29.69 in 10.0 mi SW 11.5 mph 24.2 mph N/A Thunderstorm Scattered Clouds
6:36 PM 87.8 °F 92.6 °F 69.8 °F 55% 29.68 in 10.0 mi SW 13.8 mph 19.6 mph N/A   Scattered Clouds
6:57 PM 77.0 °F - 64.4 °F 65% 29.68 in 10.0 mi NNE 4.6 mph - N/A   Mostly Cloudy
7:16 PM 73.4 °F - 62.6 °F 69% 29.69 in 10.0 mi NNE 5.8 mph - N/A   Overcast
7:37 PM 73.4 °F - 62.6 °F 69% 29.68 in 10.0 mi ESE 3.5 mph - N/A   Mostly Cloudy
7:56 PM 73.4 °F - 62.6 °F 69% 29.66 in 10.0 mi Calm Calm - N/A Thunderstorm Mostly Cloudy
8:16 PM 73.4 °F - 62.6 °F 69% 29.68 in 10.0 mi Calm Calm - N/A Thunderstorm Thunderstorm
8:36 PM 71.6 °F - 66.2 °F 83% 29.68 in 10.0 mi NNE 3.5 mph - N/A Rain , Thunderstorm Light Thunderstorms and Rain
8:56 PM 69.8 °F - 64.4 °F 83% 29.68 in 10.0 mi Calm Calm - N/A   Mostly Cloudy
9:17 PM 68.0 °F - 64.4 °F 88% 29.67 in 10.0 mi East 3.5 mph - N/A   Overcast
9:36 PM 68.0 °F - 64.4 °F 88% 29.68 in 10.0 mi Calm Calm - N/A Rain Light Rain
9:57 PM 66.2 °F - 64.4 °F 94% 29.68 in 10.0 mi Calm Calm - N/A Thunderstorm Mostly Cloudy
10:16 PM 66.2 °F - 64.4 °F 94% 29.67 in 10.0 mi Calm Calm - N/A   Overcast
10:37 PM 68.0 °F - 64.4 °F 88% 29.69 in 10.0 mi West 10.4 mph 17.3 mph N/A Rain , Thunderstorm Thunderstorms and Rain
10:57 PM 68.0 °F - 64.4 °F 88% 29.68 in 10.0 mi WNW 6.9 mph - N/A Rain , Thunderstorm Light Thunderstorms and Rain
11:16 PM 68.0 °F - 66.2 °F 94% 29.68 in 10.0 mi WNW 3.5 mph - N/A Rain Light Rain
11:37 PM 68.0 °F - 66.2 °F 94% 29.70 in 10.0 mi SSW 4.6 mph - N/A   Mostly Cloudy
11:57 PM 68.0 °F - 66.2 °F 94% 29.68 in 10.0 mi Calm Calm - N/A   Overcast